Location: Kelshall
(52.0000°N, 0.0500°W)
Time: 21:25:38
(UTC+00:00)

ATLAS 2AS CENTAUR R/B - Pass Details

Date: 18 January 2021
Orbit: 947 x 1265 km, 63.7° (Epoch: 13 February)

Event Time Altitude Azimuth Distance (km) Brightness Sun altitude
Rises 17:47:05 0° 230° (SW) 4,206 7.2 -12.4°
Reaches altitude 10° 17:49:54 10° 232° (SW) 3,248 6.4 -12.8°
Maximum altitude 17:57:50 76° 318° (NW) 1,291 3.2 -14.0°
Enters shadow 18:04:43 14° 44° (NE) 2,876 4.4 -15.0°
